Simultaneous Nadir Overpasses (SNOs) Predictions

Prediction of SNOs between METOP-B and TERRA Satellite Orbit:

Table of predicted SNOs for the next 14.0 days since TLE Epoch: 12/7/2019
Index Date (METOP-B) Time (METOP-B) Lat,Lon (METOP-B) SZA (METOP-B ) Date (TERRA) Time (TERRA) Lat,Lon (TERRA) SZA (TERRA ) Distance(km) Time Diff (sec)
1 12/07/2019 23:33:44 81.28,-126.83 106.73 12/07/2019 23:34:01 81.27,-126.72 106.75 1.89 17
2 12/08/2019 00:24:23 -81.29, 41.08 73.20 12/08/2019 00:23:27 -81.29, 41.19 73.22 1.89 56
3 12/10/2019 19:08:08 81.28, -60.31 106.99 12/10/2019 19:08:16 81.27, -60.31 106.98 0.75 8
4 12/10/2019 19:58:47 -81.29, 107.62 72.95 12/10/2019 19:57:42 -81.29, 107.62 72.98 0.16 65
5 12/13/2019 13:51:50 -81.28,-161.15 72.83 12/13/2019 13:53:03 -81.29,-161.28 72.81 2.32 73
6 12/13/2019 14:42:30 81.29, 6.60 107.23 12/13/2019 14:42:29 81.29, 6.45 107.21 2.52 1
7 12/13/2019 15:33:03 -81.32, 176.89 72.43 12/13/2019 15:31:49 -81.42, 176.71 72.41 12.40 74
8 12/16/2019 09:26:15 -81.28, -95.01 72.74 12/16/2019 09:27:18 -81.28, -94.91 72.70 1.72 63
9 12/16/2019 10:16:55 81.28, 72.71 107.31 12/16/2019 10:16:44 81.29, 72.80 107.32 1.47 11
10 12/19/2019 05:00:39 -81.28, -28.50 72.67 12/19/2019 05:01:33 -81.28, -28.59 72.66 1.54 54




NCC Satellite Simultaneous Nadir Overpasses (SNOs) Prediction Service
